Flag for Germany Weather past 2 weeks in Cloppenburg, Lower Saxony, Germany

Now
52 °F

Cool.


Feels Like: 52 °F
Forecast: 46 / 67 °F
Wind: 2 mph from Southeast

Location: Meppen-Mil


UV Index: 0 (Low)

Visibility: 2 mi


Pressure: 29.74 "Hg

Humidity: 88%

Dew point: 48 °F

Location of CloppenburgLocation

Historic Weather in Cloppenburg

°F

Cloppenburg temperature yesterday

Maximum temperature yesterday: 70 °F (at 4:20 PM)
Minimum temperature yesterday: 46 °F (at 6:20 AM)
Average temperature yesterday: 58 °F

Past Weeks' High & Low Weather Summary

 TemperatureHumidityPressure
High70 °F (Apr 7, 3:20 PM)100% (Apr 12, 9:20 AM)30.48 "Hg (Apr 12, 9:20 AM)
Low28 °F (Apr 16, 5:20 AM)27% (Apr 16, 4:20 PM)29.65 "Hg (Apr 8, 5:20 AM)
Average50 °F71%30.04 "Hg
* Reported Apr 6 9:20 AM — Apr 21 9:20 AM, Cloppenburg, Weather by CustomWeather, © 2014

Note: Actual official high and low records may vary slightly from our data, if they occured in-between our weather recording intervals... More about our weather records

Advertising

Historic Weather Conditions — Data for Previous 24 hours

 ConditionsComfort  
Time TempWeatherWind HumidityBarometerVisibility
9:20 AM
Apr 21
52 °FCool.2 mph88%29.74 "Hg2 mi
8:20 AM52 °FCool.8 mph88%29.74 "Hg3 mi
7:20 AM52 °FCool.7 mph88%29.74 "Hg4 mi
6:20 AM52 °FCool.6 mph82%29.74 "Hg4 mi
5:20 AM52 °FCool.6 mph82%29.74 "Hg4 mi
4:20 AM54 °FCool.6 mph72%29.77 "Hg4 mi
3:20 AM52 °FCool.6 mph77%29.77 "Hg5 mi
2:20 AM54 °FCool.6 mph72%29.77 "Hg5 mi
1:20 AM55 °FCool.5 mph67%29.80 "Hg4 mi
12:20 AM55 °FCool.5 mph67%29.80 "Hg4 mi
11:20 PM
Apr 20
57 °FRefreshingly cool.6 mph59%29.80 "Hg4 mi
10:20 PM57 °FRefreshingly cool.6 mph55%29.80 "Hg4 mi
9:20 PM61 °FRefreshingly cool.5 mph48%29.77 "Hg4 mi
8:20 PM64 °FMild.8 mph40%29.77 "Hg5 mi
7:20 PM66 °FMild.9 mph37%29.77 "Hg5 mi
6:20 PM68 °FMild.12 mph35%29.74 "Hg5 mi
5:20 PM68 °FMild.13 mph38%29.74 "Hg4 mi
4:20 PM70 °FMild.10 mph38%29.77 "Hg4 mi
3:20 PM68 °FMild.14 mph40%29.77 "Hg4 mi
2:20 PM68 °FMild.15 mph46%29.80 "Hg4 mi
1:20 PM66 °FMild.14 mph49%29.80 "Hg4 mi
12:20 PM64 °FMild.10 mph56%29.83 "Hg4 mi
11:20 AM61 °FCool.9 mph63%29.86 "Hg4 mi
10:20 AM57 °FCool.10 mph67%29.86 "Hg4 mi
Weather by CustomWeather, © 2014

See weather overview